| time (UTC) | temp C | wind direction | speed KPH | gust KPH | rain 1hr cm | rain 24hr cm | rain mn cm | humidity % | barometer mb |
| 20260510110927 | 9 | 236 | 1.6 | 1.6 | 0.00 | 0.03 | 0.03 | 99 | 1012.1 |
| 20260510110424 | 9 | 286 | 0.0 | 0.0 | 0.00 | 0.03 | 0.03 | 99 | 1012.1 |
| 20260510105920 | 9 | 208 | 1.6 | 1.6 | 0.00 | 0.03 | 0.03 | 99 | 1012.1 |
| 20260510105415 | 9 | 267 | 0.0 | 1.6 | 0.00 | 0.03 | 0.03 | 99 | 1011.8 |
| 20260510104911 | 9 | 179 | 1.6 | 3.2 | 0.00 | 0.03 | 0.03 | 99 | 1011.7 |
| 20260510104408 | 9 | 250 | 0.0 | 1.6 | 0.00 | 0.03 | 0.03 | 99 | 1011.8 |
| 20260510103904 | 9 | 244 | 3.2 | 3.2 | 0.00 | 0.03 | 0.03 | 99 | 1011.7 |
| 20260510103401 | 8 | 259 | 0.0 | 0.0 | 0.00 | 0.03 | 0.03 | 99 | 1011.4 |
| 20260510102856 | 8 | 229 | 3.2 | 3.2 | 0.00 | 0.03 | 0.03 | 99 | 1011.8 |
| 20260510102347 | 8 | 249 | 1.6 | 3.2 | 0.00 | 0.03 | 0.03 | 99 | 1011.7 |
| 20260510101844 | 9 | 229 | 1.6 | 3.2 | 0.00 | 0.03 | 0.03 | 99 | 1012.0 |
| 20260510101342 | 8 | 265 | 0.0 | 1.6 | 0.00 | 0.03 | 0.03 | 99 | 1011.6 |
| 20260510100838 | 8 | 270 | 0.0 | 0.0 | 0.00 | 0.03 | 0.03 | 99 | 1011.4 |
| 20260510100336 | 8 | 257 | 0.0 | 0.0 | 0.00 | 0.03 | 0.03 | 99 | 1011.4 |
| 20260510095832 | 8 | 192 | 0.0 | 1.6 | 0.00 | 0.03 | 0.03 | 99 | 1011.5 |
| 20260510095327 | 8 | 282 | 0.0 | 0.0 | 0.00 | 0.03 | 0.03 | 99 | 1011.5 |
| 20260510094821 | 8 | 285 | 0.0 | 1.6 | 0.00 | 0.03 | 0.03 | 99 | 1011.5 |
| 20260510094316 | 8 | 269 | 0.0 | 0.0 | 0.00 | 0.03 | 0.03 | 99 | 1011.4 |
| 20260510093813 | 8 | 274 | 0.0 | 0.0 | 0.00 | 0.03 | 0.03 | 99 | 1011.4 |
| 20260510093309 | 8 | 285 | 0.0 | 0.0 | 0.00 | 0.03 | 0.03 | 99 | 1011.5 |
| 20260510092806 | 8 | 249 | 0.0 | 0.0 | 0.00 | 0.03 | 0.03 | 99 | 1011.6 |
| 20260510092301 | 8 | 298 | 0.0 | 0.0 | 0.00 | 0.03 | 0.03 | 99 | 1011.5 |
| 20260510091757 | 8 | 304 | 0.0 | 0.0 | 0.00 | 0.03 | 0.03 | 99 | 1011.6 |
| 20260510091255 | 8 | 302 | 0.0 | 0.0 | 0.00 | 0.03 | 0.03 | 99 | 1011.6 |
| 20260510090751 | 8 | 284 | 0.0 | 0.0 | 0.00 | 0.03 | 0.03 | 99 | 1011.8 |
| 20260510090248 | 8 | 283 | 0.0 | 0.0 | 0.00 | 0.03 | 0.03 | 99 | 1011.6 |
| 20260510085743 | 8 | 283 | 0.0 | 0.0 | 0.00 | 0.03 | 0.03 | 99 | 1011.8 |
| 20260510085238 | 8 | 285 | 0.0 | 0.0 | 0.00 | 0.03 | 0.03 | 99 | 1011.6 |
| 20260510084734 | 8 | 294 | 0.0 | 0.0 | 0.00 | 0.03 | 0.03 | 99 | 1011.2 |
| 20260510084231 | 8 | 281 | 0.0 | 0.0 | 0.00 | 0.03 | 0.03 | 99 | 1011.5 |
| 20260510083727 | 8 | 284 | 0.0 | 0.0 | 0.00 | 0.03 | 0.03 | 99 | 1011.4 |
| 20260510083225 | 8 | 305 | 0.0 | 0.0 | 0.00 | 0.03 | 0.03 | 99 | 1011.3 |
| 20260510082720 | 8 | 308 | 0.0 | 0.0 | 0.00 | 0.03 | 0.03 | 99 | 1011.5 |
| 20260510082217 | 8 | 337 | 0.0 | 0.0 | 0.18 | 0.03 | 0.03 | 99 | 1011.6 |
| 20260510081716 | 8 | 287 | 0.0 | 0.0 | 0.18 | 0.03 | 0.03 | 99 | 1011.9 |
| 20260510081212 | 8 | 283 | 0.0 | 0.0 | 0.18 | 0.03 | 0.03 | 99 | 1011.9 |
| 20260510080707 | 8 | 291 | 0.0 | 0.0 | 0.00 | 0.00 | 0.00 | 99 | 1011.7 |
| 20260510080204 | 8 | 294 | 0.0 | 0.0 | 0.00 | 0.00 | 0.00 | 99 | 1011.7 |
| 20260510075700 | 8 | 287 | 0.0 | 0.0 | 0.00 | 0.00 | 0.00 | 99 | 1011.7 |
| 20260510075158 | 8 | 282 | 0.0 | 0.0 | 0.00 | 0.00 | 0.00 | 99 | 1011.8 |
| 20260510074655 | 8 | 280 | 0.0 | 0.0 | 0.00 | 0.00 | 0.00 | 99 | 1011.6 |
| 20260510074151 | 8 | 285 | 0.0 | 0.0 | 0.00 | 0.00 | 0.00 | 99 | 1011.5 |
| 20260510073648 | 8 | 300 | 0.0 | 0.0 | 0.00 | 0.00 | 0.00 | 99 | 1011.7 |
| 20260510073144 | 8 | 303 | 0.0 | 0.0 | 0.00 | 0.00 | 0.00 | 99 | 1011.4 |
| 20260510072640 | 8 | 305 | 0.0 | 0.0 | 0.00 | 0.00 | 0.00 | 99 | 1011.6 |
| 20260510072136 | 8 | 290 | 0.0 | 0.0 | 0.00 | 0.00 | 0.00 | 99 | 1011.5 |
| 20260510071632 | 7 | 320 | 0.0 | 0.0 | 0.00 | 0.00 | 0.00 | 99 | 1011.5 |
| 20260510071130 | 7 | 321 | 0.0 | 0.0 | 0.00 | 0.00 | 0.00 | 99 | 1011.6 |
| 20260510070628 | 7 | 277 | 0.0 | 0.0 | 0.00 | 0.00 | 0.00 | 99 | 1011.5 |
| 20260510070125 | 7 | 279 | 0.0 | 0.0 | 0.00 | 0.00 | 0.00 | 99 | 1011.7 |
| 20260510065620 | 7 | 279 | 0.0 | 0.0 | 0.00 | 0.00 | 0.00 | 99 | 1011.6 |
| 20260510065116 | 7 | 319 | 0.0 | 0.0 | 0.00 | 0.00 | 0.00 | 99 | 1011.7 |
| 20260510064613 | 7 | 314 | 0.0 | 1.6 | 0.00 | 0.00 | 0.00 | 99 | 1011.7 |
| 20260510064110 | 7 | 324 | 0.0 | 0.0 | 0.00 | 0.00 | 0.00 | 99 | 1012.1 |
| 20260510063607 | 7 | 313 | 0.0 | 0.0 | 0.00 | 0.00 | 0.00 | 99 | 1012.3 |
| 20260510063103 | 7 | 300 | 0.0 | 0.0 | 0.00 | 0.00 | 0.00 | 99 | 1012.2 |
| 20260510062554 | 7 | 296 | 0.0 | 0.0 | 0.00 | 0.00 | 0.00 | 99 | 1012.3 |
| 20260510062049 | 7 | 299 | 0.0 | 0.0 | 0.00 | 0.00 | 0.00 | 99 | 1012.3 |
| 20260510061546 | 7 | 305 | 0.0 | 0.0 | 0.00 | 0.00 | 0.00 | 99 | 1012.4 |
| 20260510061043 | 7 | 290 | 0.0 | 0.0 | 0.00 | 0.00 | 0.00 | 99 | 1012.4 |
| 20260510060539 | 7 | 294 | 0.0 | 0.0 | 0.00 | 0.00 | 0.00 | 99 | 1012.5 |
| 20260510060035 | 7 | 296 | 0.0 | 0.0 | 0.00 | 0.00 | 0.00 | 99 | 1012.5 |
| 20260510055531 | 7 | 302 | 0.0 | 0.0 | 0.00 | 0.00 | 0.00 | 99 | 1012.3 |
| 20260510055030 | 7 | 296 | 0.0 | 0.0 | 0.00 | 0.00 | 0.00 | 99 | 1012.5 |
| 20260510054525 | 7 | 298 | 0.0 | 0.0 | 0.00 | 0.00 | 0.00 | 99 | 1012.4 |
| 20260510054020 | 7 | 290 | 0.0 | 0.0 | 0.00 | 0.00 | 0.00 | 99 | 1012.6 |
| 20260510053515 | 7 | 293 | 0.0 | 0.0 | 0.00 | 0.00 | 0.00 | 99 | 1012.5 |
| 20260510053013 | 7 | 288 | 0.0 | 0.0 | 0.00 | 0.00 | 0.00 | 99 | 1012.6 |
| 20260510052509 | 7 | 277 | 0.0 | 0.0 | 0.00 | 0.00 | 0.00 | 99 | 1012.6 |
| 20260510052005 | 7 | 288 | 0.0 | 0.0 | 0.00 | 0.00 | 0.00 | 99 | 1012.6 |
| 20260510051500 | 7 | 299 | 0.0 | 0.0 | 0.00 | 0.00 | 0.00 | 99 | 1012.4 |
| 20260510050957 | 7 | 276 | 0.0 | 0.0 | 0.00 | 0.00 | 0.00 | 99 | 1012.6 |
| 20260510050454 | 7 | 279 | 0.0 | 0.0 | 0.00 | 0.00 | 0.00 | 99 | 1012.6 |
| 20260510045951 | 7 | 281 | 0.0 | 0.0 | 0.00 | 0.00 | 0.00 | 99 | 1012.6 |
| 20260510045449 | 7 | 294 | 0.0 | 0.0 | 0.00 | 0.00 | 0.00 | 99 | 1012.5 |
| 20260510044945 | 7 | 299 | 0.0 | 0.0 | 0.00 | 0.00 | 0.00 | 99 | 1012.6 |
| 20260510044442 | 7 | 309 | 0.0 | 0.0 | 0.00 | 0.00 | 0.00 | 99 | 1012.6 |
| 20260510043939 | 7 | 291 | 0.0 | 0.0 | 0.00 | 0.00 | 0.00 | 99 | 1012.8 |
| 20260510043434 | 7 | 286 | 0.0 | 0.0 | 0.00 | 0.00 | 0.00 | 99 | 1012.9 |
| 20260510042933 | 7 | 294 | 0.0 | 0.0 | 0.00 | 0.00 | 0.00 | 99 | 1012.8 |
| 20260510042429 | 7 | 296 | 0.0 | 0.0 | 0.00 | 0.00 | 0.00 | 99 | 1012.7 |
| 20260510041924 | 7 | 288 | 0.0 | 0.0 | 0.00 | 0.00 | 0.00 | 99 | 1012.9 |
| 20260510041422 | 7 | 292 | 0.0 | 0.0 | 0.00 | 0.00 | 0.00 | 99 | 1012.9 |
| 20260510040919 | 7 | 288 | 0.0 | 0.0 | 0.00 | 0.00 | 0.00 | 99 | 1012.8 |
| 20260510040416 | 7 | 307 | 0.0 | 0.0 | 0.00 | 0.00 | 0.00 | 99 | 1013.0 |
| 20260510035911 | 7 | 287 | 0.0 | 0.0 | 0.00 | 1.14 | 1.14 | 99 | 1013.0 |
| 20260510035408 | 7 | 298 | 0.0 | 0.0 | 0.00 | 1.14 | 1.14 | 99 | 1013.0 |
| 20260510034903 | 6 | 288 | 0.0 | 0.0 | 0.00 | 1.14 | 1.14 | 99 | 1013.0 |
| 20260510034402 | 7 | 290 | 0.0 | 0.0 | 0.00 | 1.14 | 1.14 | 99 | 1012.9 |
| 20260510033857 | 6 | 275 | 0.0 | 0.0 | 0.00 | 1.14 | 1.14 | 99 | 1013.3 |
| 20260510033354 | 6 | 288 | 0.0 | 0.0 | 0.00 | 1.14 | 1.14 | 99 | 1013.3 |
| 20260510032850 | 6 | 305 | 0.0 | 0.0 | 0.00 | 1.14 | 1.14 | 99 | 1013.3 |
| 20260510032347 | 7 | 280 | 0.0 | 0.0 | 0.00 | 1.14 | 1.14 | 99 | 1013.3 |
| 20260510031843 | 6 | 300 | 0.0 | 0.0 | 0.00 | 1.14 | 1.14 | 99 | 1013.1 |
| 20260510031338 | 6 | 285 | 0.0 | 0.0 | 0.00 | 1.14 | 1.14 | 99 | 1013.1 |
| 20260510030838 | 6 | 283 | 0.0 | 0.0 | 0.00 | 1.14 | 1.14 | 99 | 1013.1 |
| 20260510030335 | 6 | 316 | 0.0 | 0.0 | 0.00 | 1.14 | 1.14 | 99 | 1013.4 |
| 20260510025833 | 7 | 300 | 0.0 | 0.0 | 0.00 | 1.14 | 1.14 | 99 | 1013.4 |
| 20260510025330 | 7 | 308 | 0.0 | 0.0 | 0.00 | 1.14 | 1.14 | 99 | 1013.4 |
| 20260510024826 | 6 | 315 | 0.0 | 0.0 | 0.13 | 1.14 | 1.14 | 99 | 1013.6 |
| 20260510024323 | 6 | 298 | 0.0 | 0.0 | 0.13 | 1.14 | 1.14 | 99 | 1013.5 |
| 20260510023820 | 6 | 288 | 0.0 | 0.0 | 0.18 | 1.12 | 1.12 | 99 | 1013.6 |
| 20260510023316 | 6 | 313 | 0.0 | 0.0 | 0.30 | 1.12 | 1.12 | 99 | 1013.5 |
| 20260510022813 | 6 | 284 | 0.0 | 0.0 | 0.30 | 1.09 | 1.09 | 99 | 1013.6 |
| 20260510022312 | 6 | 301 | 0.0 | 0.0 | 0.48 | 1.07 | 1.07 | 99 | 1013.5 |
| 20260510021812 | 6 | 296 | 0.0 | 0.0 | 0.43 | 1.04 | 1.04 | 99 | 1013.7 |
| 20260510021310 | 6 | 307 | 0.0 | 0.0 | 0.13 | 0.99 | 0.99 | 99 | 1013.6 |
| 20260510020806 | 6 | 313 | 0.0 | 0.0 | 0.00 | 0.97 | 0.97 | 99 | 1013.7 |
| 20260510020305 | 7 | 311 | 0.0 | 0.0 | 0.00 | 0.97 | 0.97 | 99 | 1013.7 |
| 20260510015802 | 7 | 290 | 0.0 | 0.0 | 0.18 | 0.97 | 0.97 | 99 | 1013.7 |
| 20260510015258 | 6 | 300 | 0.0 | 0.0 | 0.18 | 0.97 | 0.97 | 99 | 1013.6 |
| 20260510014753 | 6 | 284 | 0.0 | 0.0 | 0.00 | 0.94 | 0.94 | 99 | 1013.5 |
| 20260510014251 | 6 | 271 | 0.0 | 0.0 | 0.00 | 0.94 | 0.94 | 99 | 1013.6 |
| 20260510013747 | 6 | 343 | 0.0 | 0.0 | 0.00 | 0.94 | 0.94 | 99 | 1013.5 |
| 20260510013242 | 6 | 288 | 0.0 | 1.6 | 0.00 | 0.94 | 0.94 | 99 | 1013.6 |
| 20260510012738 | 6 | 304 | 0.0 | 0.0 | 0.00 | 0.94 | 0.94 | 99 | 1013.7 |
| 20260510012232 | 6 | 269 | 0.0 | 0.0 | 0.00 | 0.94 | 0.94 | 99 | 1013.5 |
| 20260510011727 | 6 | 347 | 0.0 | 1.6 | 0.00 | 0.94 | 0.94 | 99 | 1013.4 |
| 20260510011222 | 6 | 290 | 0.0 | 0.0 | 0.00 | 0.94 | 0.94 | 99 | 1013.5 |
| 20260510010719 | 6 | 276 | 0.0 | 0.0 | 0.00 | 0.94 | 0.94 | 99 | 1013.6 |
| 20260510010216 | 6 | 316 | 0.0 | 0.0 | 0.00 | 0.94 | 0.94 | 99 | 1013.5 |
| 20260510005712 | 6 | 344 | 1.6 | 1.6 | 0.00 | 0.94 | 0.94 | 99 | 1013.6 |
| 20260510005208 | 6 | 173 | 1.6 | 1.6 | 0.00 | 0.94 | 0.94 | 99 | 1013.3 |
| 20260510004707 | 6 | 304 | 1.6 | 1.6 | 0.00 | 0.94 | 0.94 | 99 | 1013.4 |
| 20260510004204 | 6 | 9 | 1.6 | 3.2 | 0.00 | 0.94 | 0.94 | 99 | 1013.3 |
| 20260510003702 | 6 | 311 | 0.0 | 0.0 | 0.00 | 0.94 | 0.94 | 99 | 1013.2 |
| 20260510003157 | 6 | 67 | 3.2 | 4.8 | 0.00 | 0.94 | 0.94 | 99 | 1013.1 |
| 20260510002651 | 6 | 15 | 0.0 | 1.6 | 0.00 | 0.94 | 0.94 | 99 | 1013.3 |
| 20260510002148 | 6 | 4 | 1.6 | 1.6 | 0.00 | 0.94 | 0.94 | 99 | 1013.3 |
| 20260510001645 | 6 | 26 | 1.6 | 1.6 | 0.00 | 0.94 | 0.94 | 99 | 1013.2 |
| 20260510001144 | 6 | 347 | 1.6 | 1.6 | 0.00 | 0.94 | 0.94 | 99 | 1013.4 |
| 20260510000645 | 6 | 5 | 1.6 | 1.6 | 0.13 | 0.94 | 0.94 | 99 | 1013.4 |
| 20260510000143 | 6 | 314 | 0.0 | 0.0 | 0.13 | 0.94 | 0.94 | 99 | 1013.6 |
| 20260509235639 | 6 | 22 | 3.2 | 3.2 | 0.00 | 0.91 | 0.91 | 99 | 1013.7 |
| 20260509235136 | 6 | 343 | 0.0 | 1.6 | 0.18 | 0.91 | 0.91 | 99 | 1013.6 |
| 20260509234631 | 6 | 332 | 1.6 | 1.6 | 0.18 | 0.91 | 0.91 | 99 | 1013.5 |
| 20260509234129 | 6 | 331 | 0.0 | 0.0 | 0.18 | 0.91 | 0.91 | 99 | 1013.8 |
| 20260509233627 | 6 | 324 | 0.0 | 0.0 | 0.00 | 0.89 | 0.89 | 99 | 1013.6 |
| 20260509233124 | 6 | 325 | 1.6 | 1.6 | 0.00 | 0.89 | 0.89 | 99 | 1013.8 |
| 20260509232620 | 6 | 326 | 0.0 | 1.6 | 0.00 | 0.89 | 0.89 | 99 | 1013.9 |
| 20260509232117 | 6 | 350 | 1.6 | 1.6 | 0.18 | 0.89 | 0.89 | 99 | 1013.7 |
| 20260509231614 | 6 | 309 | 0.0 | 0.0 | 0.30 | 0.89 | 0.89 | 99 | 1013.6 |
| 20260509231112 | 6 | 1 | 1.6 | 3.2 | 0.13 | 0.86 | 0.86 | 99 | 1013.6 |
| 20260509230608 | 6 | 8 | 1.6 | 3.2 | 0.00 | 0.84 | 0.84 | 99 | 1013.6 |
| 20260509230105 | 6 | 16 | 1.6 | 1.6 | 0.18 | 0.84 | 0.84 | 99 | 1013.5 |
| 20260509225601 | 6 | 35 | 3.2 | 4.8 | 0.18 | 0.84 | 0.84 | 99 | 1013.7 |
| 20260509225056 | 6 | 46 | 1.6 | 3.2 | 0.00 | 0.81 | 0.81 | 99 | 1013.6 |
| 20260509224552 | 6 | 65 | 1.6 | 3.2 | 0.13 | 0.81 | 0.81 | 99 | 1013.5 |
| 20260509224049 | 6 | 55 | 0.0 | 1.6 | 0.13 | 0.81 | 0.81 | 99 | 1013.5 |
| 20260509223546 | 6 | 114 | 6.4 | 11.3 | 0.00 | 0.79 | 0.79 | 99 | 1013.7 |
| 20260509223044 | 6 | 335 | 1.6 | 1.6 | 0.18 | 0.79 | 0.79 | 99 | 1013.5 |
| 20260509222539 | 6 | 26 | 4.8 | 4.8 | 0.18 | 0.79 | 0.79 | 99 | 1013.5 |
| 20260509222036 | 6 | 4 | 0.0 | 1.6 | 0.00 | 0.76 | 0.76 | 99 | 1013.7 |
| 20260509221532 | 6 | 21 | 4.8 | 6.4 | 0.00 | 0.76 | 0.76 | 99 | 1013.5 |
| 20260509221028 | 6 | 318 | 0.0 | 0.0 | 0.13 | 0.76 | 0.76 | 99 | 1013.9 |
| 20260509220524 | 6 | 100 | 3.2 | 3.2 | 0.13 | 0.76 | 0.76 | 99 | 1013.6 |
| 20260509220020 | 6 | 133 | 4.8 | 4.8 | 0.13 | 0.76 | 0.76 | 99 | 1013.9 |
| 20260509215515 | 6 | 44 | 4.8 | 9.7 | 0.18 | 0.74 | 0.74 | 99 | 1014.2 |
| 20260509215013 | 6 | 61 | 4.8 | 4.8 | 0.18 | 0.74 | 0.74 | 99 | 1014.1 |
| 20260509214510 | 6 | 38 | 1.6 | 3.2 | 0.13 | 0.71 | 0.71 | 99 | 1014.4 |
| 20260509214007 | 6 | 9 | 1.6 | 1.6 | 0.30 | 0.71 | 0.71 | 99 | 1014.3 |
| 20260509213503 | 6 | 41 | 1.6 | 1.6 | 0.30 | 0.69 | 0.69 | 99 | 1014.4 |
| 20260509213000 | 6 | 268 | 3.2 | 3.2 | 0.13 | 0.66 | 0.66 | 99 | 1014.3 |
| 20260509212457 | 6 | 41 | 3.2 | 4.8 | 0.18 | 0.64 | 0.64 | 99 | 1014.4 |
| 20260509211953 | 7 | 153 | 3.2 | 4.8 | 0.18 | 0.64 | 0.64 | 99 | 1014.4 |
| 20260509211449 | 7 | 148 | 3.2 | 4.8 | 0.00 | 0.61 | 0.61 | 99 | 1014.3 |
| 20260509210945 | 7 | 283 | 0.0 | 0.0 | 0.13 | 0.61 | 0.61 | 99 | 1014.4 |
| 20260509210437 | 7 | 81 | 3.2 | 4.8 | 0.13 | 0.61 | 0.61 | 99 | 1014.2 |
| 20260509205933 | 7 | 352 | 1.6 | 3.2 | 0.00 | 0.58 | 0.58 | 99 | 1014.0 |
| 20260509205428 | 7 | 354 | 1.6 | 1.6 | 0.00 | 0.58 | 0.58 | 99 | 1013.7 |
| 20260509204923 | 7 | 36 | 1.6 | 3.2 | 0.00 | 0.58 | 0.58 | 99 | 1014.1 |
| 20260509204420 | 7 | 24 | 1.6 | 1.6 | 0.00 | 0.58 | 0.58 | 99 | 1014.5 |
| 20260509203917 | 7 | 169 | 1.6 | 3.2 | 0.00 | 0.58 | 0.58 | 99 | 1014.2 |
| 20260509203413 | 7 | 19 | 1.6 | 3.2 | 0.00 | 0.58 | 0.58 | 99 | 1014.2 |
| 20260509202910 | 7 | 346 | 1.6 | 3.2 | 0.00 | 0.58 | 0.58 | 99 | 1014.0 |
| 20260509202406 | 7 | 335 | 1.6 | 1.6 | 0.00 | 0.58 | 0.58 | 99 | 1014.0 |
| 20260509201901 | 7 | 19 | 4.8 | 4.8 | 0.00 | 0.58 | 0.58 | 99 | 1014.0 |
| 20260509201356 | 7 | 31 | 1.6 | 1.6 | 0.18 | 0.58 | 0.58 | 99 | 1014.5 |
| 20260509200853 | 7 | 33 | 3.2 | 6.4 | 0.18 | 0.58 | 0.58 | 99 | 1014.6 |
| 20260509200348 | 7 | 50 | 0.0 | 0.0 | 0.18 | 0.56 | 0.56 | 99 | 1014.9 |
| 20260509195845 | 7 | 309 | 1.6 | 1.6 | 0.18 | 0.56 | 0.56 | 99 | 1015.0 |
| 20260509195340 | 7 | 292 | 0.0 | 1.6 | 0.13 | 0.53 | 0.53 | 98 | 1015.0 |
| 20260509194839 | 7 | 275 | 1.6 | 1.6 | 0.30 | 0.53 | 0.53 | 98 | 1014.9 |
| 20260509194336 | 7 | 343 | 1.6 | 1.6 | 0.30 | 0.51 | 0.51 | 98 | 1015.0 |
| 20260509193833 | 7 | 272 | 1.6 | 1.6 | 0.13 | 0.48 | 0.48 | 98 | 1015.0 |
| 20260509193332 | 7 | 228 | 1.6 | 1.6 | 0.30 | 0.48 | 0.48 | 98 | 1015.1 |
| 20260509192829 | 7 | 237 | 0.0 | 1.6 | 0.30 | 0.46 | 0.46 | 98 | 1014.9 |
| 20260509192325 | 7 | 273 | 3.2 | 3.2 | 0.30 | 0.43 | 0.43 | 98 | 1014.9 |
| 20260509191820 | 7 | 86 | 3.2 | 3.2 | 0.30 | 0.41 | 0.41 | 97 | 1015.0 |
| 20260509191316 | 7 | 207 | 0.0 | 0.0 | 0.13 | 0.38 | 0.38 | 97 | 1015.0 |
| 20260509190812 | 7 | 223 | 1.6 | 3.2 | 0.18 | 0.36 | 0.36 | 97 | 1014.9 |
| 20260509190310 | 7 | 100 | 0.0 | 3.2 | 0.30 | 0.36 | 0.36 | 97 | 1015.1 |
| 20260509185807 | 7 | 180 | 1.6 | 1.6 | 0.30 | 0.33 | 0.33 | 97 | 1015.2 |
| 20260509185306 | 7 | 298 | 1.6 | 1.6 | 0.30 | 0.30 | 0.30 | 97 | 1015.2 |
| 20260509184800 | 7 | 188 | 3.2 | 4.8 | 0.30 | 0.28 | 0.28 | 96 | 1015.3 |
| 20260509184258 | 7 | 180 | 3.2 | 3.2 | 0.18 | 0.25 | 0.25 | 95 | 1015.4 |
| 20260509183754 | 7 | 36 | 4.8 | 4.8 | 0.18 | 0.23 | 0.23 | 94 | 1015.4 |
| 20260509183249 | 7 | 238 | 0.0 | 1.6 | 0.18 | 0.23 | 0.23 | 94 | 1015.5 |
| 20260509182745 | 7 | 241 | 1.6 | 1.6 | 0.13 | 0.20 | 0.20 | 93 | 1015.5 |
| 20260509182243 | 8 | 279 | 1.6 | 3.2 | 0.30 | 0.20 | 0.20 | 92 | 1015.4 |
| 20260509181740 | 8 | 168 | 3.2 | 3.2 | 0.18 | 0.18 | 0.18 | 93 | 1015.4 |
| 20260509181237 | 8 | 139 | 1.6 | 1.6 | 0.13 | 0.15 | 0.15 | 93 | 1015.3 |
| 20260509180734 | 8 | 307 | 0.0 | 0.0 | 0.13 | 0.15 | 0.15 | 93 | 1015.5 |
| 20260509180231 | 8 | 163 | 1.6 | 1.6 | 0.18 | 0.13 | 0.13 | 92 | 1015.4 |
| 20260509175727 | 8 | 285 | 0.0 | 1.6 | 0.30 | 0.13 | 0.13 | 91 | 1015.3 |
| 20260509175223 | 8 | 221 | 1.6 | 1.6 | 0.13 | 0.10 | 0.10 | 90 | 1015.5 |
| 20260509174719 | 8 | 198 | 1.6 | 3.2 | 0.30 | 0.10 | 0.10 | 88 | 1015.2 |
| 20260509174215 | 8 | 257 | 0.0 | 1.6 | 0.18 | 0.08 | 0.08 | 86 | 1015.2 |
| 20260509173711 | 9 | 213 | 1.6 | 1.6 | 0.13 | 0.05 | 0.05 | 86 | 1015.2 |
| 20260509173207 | 9 | 199 | 0.0 | 0.0 | 0.13 | 0.05 | 0.05 | 86 | 1015.3 |
| 20260509172703 | 9 | 291 | 0.0 | 0.0 | 0.00 | 0.03 | 0.03 | 84 | 1015.3 |
| 20260509172200 | 9 | 224 | 1.6 | 1.6 | 0.00 | 0.03 | 0.03 | 82 | 1015.1 |
| 20260509171655 | 10 | 266 | 3.2 | 3.2 | 0.18 | 0.03 | 0.03 | 81 | 1015.2 |
| 20260509171151 | 10 | 251 | 3.2 | 4.8 | 0.18 | 0.03 | 0.03 | 79 | 1015.2 |
| 20260509170649 | 10 | 151 | 0.0 | 0.0 | 0.00 | 0.00 | 0.00 | 80 | 1015.3 |
| 20260509170145 | 10 | 66 | 0.0 | 1.6 | 0.00 | 0.00 | 0.00 | 75 | 1015.2 |
| 20260509165643 | 10 | 217 | 3.2 | 4.8 | 0.00 | 0.00 | 0.00 | 74 | 1015.2 |
| 20260509165139 | 10 | 272 | 4.8 | 6.4 | 0.00 | 0.00 | 0.00 | 75 | 1015.2 |
| 20260509164635 | 10 | 208 | 3.2 | 3.2 | 0.00 | 0.00 | 0.00 | 73 | 1015.2 |
| 20260509164131 | 10 | 238 | 3.2 | 4.8 | 0.00 | 0.00 | 0.00 | 67 | 1015.4 |
| 20260509163628 | 11 | 226 | 1.6 | 3.2 | 0.00 | 0.00 | 0.00 | 64 | 1015.3 |
| 20260509163124 | 11 | 217 | 4.8 | 9.7 | 0.00 | 0.00 | 0.00 | 62 | 1015.4 |
| 20260509162621 | 11 | 206 | 3.2 | 4.8 | 0.00 | 0.00 | 0.00 | 62 | 1015.3 |
| 20260509162117 | 11 | 185 | 6.4 | 9.7 | 0.00 | 0.00 | 0.00 | 59 | 1015.2 |
| 20260509161614 | 12 | 234 | 3.2 | 4.8 | 0.00 | 0.00 | 0.00 | 56 | 1015.3 |
| 20260509161109 | 12 | 218 | 6.4 | 9.7 | 0.00 | 0.00 | 0.00 | 58 | 1015.3 |
| 20260509160605 | 12 | 235 | 4.8 | 4.8 | 0.00 | 0.00 | 0.00 | 56 | 1015.2 |
| 20260509160100 | 12 | 206 | 6.4 | 9.7 | 0.00 | 0.00 | 0.00 | 54 | 1015.1 |
| 20260509155557 | 12 | 161 | 4.8 | 6.4 | 0.00 | 0.00 | 0.00 | 54 | 1015.1 |
| 20260509155053 | 12 | 185 | 3.2 | 3.2 | 0.00 | 0.00 | 0.00 | 52 | 1015.2 |
| 20260509154549 | 12 | 213 | 6.4 | 11.3 | 0.00 | 0.00 | 0.00 | 48 | 1015.2 |
| 20260509154047 | 13 | 287 | 1.6 | 3.2 | 0.00 | 0.00 | 0.00 | 50 | 1015.1 |
| 20260509153544 | 12 | 262 | 1.6 | 1.6 | 0.00 | 0.00 | 0.00 | 46 | 1015.2 |
| 20260509153040 | 13 | 209 | 3.2 | 6.4 | 0.00 | 0.00 | 0.00 | 48 | 1015.2 |
| 20260509152536 | 13 | 150 | 1.6 | 3.2 | 0.00 | 0.00 | 0.00 | 51 | 1015.1 |
| 20260509152034 | 13 | 175 | 3.2 | 4.8 | 0.00 | 0.00 | 0.00 | 50 | 1014.9 |
| 20260509151530 | 13 | 264 | 1.6 | 1.6 | 0.00 | 0.00 | 0.00 | 50 | 1014.7 |
| 20260509151028 | 13 | 220 | 4.8 | 6.4 | 0.00 | 0.00 | 0.00 | 50 | 1014.9 |
| 20260509150525 | 13 | 140 | 4.8 | 4.8 | 0.00 | 0.00 | 0.00 | 47 | 1014.8 |
| 20260509150024 | 13 | 145 | 1.6 | 3.2 | 0.00 | 0.00 | 0.00 | 47 | 1014.7 |
| 20260509145519 | 13 | 300 | 1.6 | 3.2 | 0.00 | 0.00 | 0.00 | 47 | 1014.7 |
| 20260509145014 | 13 | 190 | 3.2 | 3.2 | 0.00 | 0.00 | 0.00 | 46 | 1014.6 |
| 20260509144511 | 14 | 94 | 3.2 | 3.2 | 0.00 | 0.00 | 0.00 | 45 | 1014.5 |
| 20260509144008 | 13 | 131 | 4.8 | 9.7 | 0.00 | 0.00 | 0.00 | 45 | 1014.7 |
| 20260509143505 | 15 | 229 | 4.8 | 4.8 | 0.00 | 0.00 | 0.00 | 44 | 1014.6 |
| 20260509143003 | 14 | 116 | 0.0 | 1.6 | 0.00 | 0.00 | 0.00 | 46 | 1014.4 |
| 20260509142458 | 14 | 157 | 4.8 | 6.4 | 0.00 | 0.00 | 0.00 | 46 | 1014.4 |
| 20260509141954 | 14 | 132 | 4.8 | 4.8 | 0.00 | 0.00 | 0.00 | 43 | 1014.4 |
| 20260509141450 | 14 | 254 | 0.0 | 1.6 | 0.00 | 0.00 | 0.00 | 49 | 1014.4 |
| 20260509140948 | 13 | 78 | 1.6 | 3.2 | 0.00 | 0.00 | 0.00 | 49 | 1014.6 |
| 20260509140444 | 14 | 278 | 4.8 | 6.4 | 0.00 | 0.00 | 0.00 | 44 | 1014.7 |
| 20260509135942 | 13 | 267 | 4.8 | 4.8 | 0.00 | 0.00 | 0.00 | 46 | 1014.5 |
| 20260509135439 | 14 | 66 | 6.4 | 6.4 | 0.00 | 0.00 | 0.00 | 45 | 1014.4 |
| 20260509134936 | 14 | 230 | 0.0 | 0.0 | 0.00 | 0.00 | 0.00 | 43 | 1014.5 |
| 20260509134434 | 14 | 237 | 1.6 | 1.6 | 0.00 | 0.00 | 0.00 | 46 | 1014.5 |
| 20260509133931 | 14 | 194 | 8.0 | 11.3 | 0.00 | 0.00 | 0.00 | 44 | 1014.7 |
| 20260509133427 | 13 | 254 | 0.0 | 0.0 | 0.00 | 0.00 | 0.00 | 50 | 1014.8 |
| 20260509132926 | 13 | 131 | 4.8 | 6.4 | 0.00 | 0.00 | 0.00 | 48 | 1014.5 |
| 20260509132424 | 13 | 191 | 1.6 | 3.2 | 0.00 | 0.00 | 0.00 | 53 | 1014.7 |
| 20260509131920 | 13 | 218 | 1.6 | 1.6 | 0.00 | 0.00 | 0.00 | 49 | 1014.7 |
| 20260509131418 | 13 | 256 | 0.0 | 0.0 | 0.00 | 0.00 | 0.00 | 49 | 1014.9 |
| 20260509130914 | 13 | 277 | 1.6 | 3.2 | 0.00 | 0.00 | 0.00 | 50 | 1014.7 |
| 20260509130409 | 12 | 155 | 3.2 | 3.2 | 0.00 | 0.00 | 0.00 | 56 | 1014.8 |
| 20260509125907 | 12 | 256 | 0.0 | 1.6 | 0.00 | 0.00 | 0.00 | 58 | 1014.9 |
| 20260509125404 | 12 | 145 | 1.6 | 1.6 | 0.00 | 0.00 | 0.00 | 57 | 1015.0 |
| 20260509124859 | 12 | 122 | 0.0 | 1.6 | 0.00 | 0.00 | 0.00 | 58 | 1015.0 |
| 20260509124356 | 12 | 177 | 3.2 | 3.2 | 0.00 | 0.00 | 0.00 | 56 | 1015.0 |
| 20260509123854 | 12 | 172 | 1.6 | 1.6 | 0.00 | 0.00 | 0.00 | 58 | 1015.1 |
| 20260509123351 | 12 | 296 | 0.0 | 1.6 | 0.00 | 0.00 | 0.00 | 58 | 1015.2 |
| 20260509122847 | 11 | 190 | 3.2 | 3.2 | 0.00 | 0.00 | 0.00 | 58 | 1015.0 |
| 20260509122344 | 11 | 255 | 1.6 | 3.2 | 0.00 | 0.00 | 0.00 | 60 | 1015.2 |
| 20260509121841 | 11 | 251 | 1.6 | 1.6 | 0.00 | 0.00 | 0.00 | 64 | 1015.2 |
| 20260509121338 | 10 | 287 | 0.0 | 0.0 | 0.00 | 0.00 | 0.00 | 64 | 1015.2 |
| 20260509120836 | 10 | 296 | 1.6 | 1.6 | 0.00 | 0.00 | 0.00 | 65 | 1015.2 |
| 20260509120334 | 10 | 283 | 0.0 | 0.0 | 0.00 | 0.00 | 0.00 | 66 | 1015.2 |
| 20260509115832 | 10 | 277 | 0.0 | 0.0 | 0.00 | 0.00 | 0.00 | 67 | 1015.1 |
| 20260509115328 | 10 | 272 | 0.0 | 0.0 | 0.00 | 0.00 | 0.00 | 69 | 1015.2 |
| 20260509114826 | 9 | 266 | 0.0 | 0.0 | 0.00 | 0.00 | 0.00 | 67 | 1015.2 |
| 20260509114325 | 10 | 242 | 1.6 | 1.6 | 0.00 | 0.00 | 0.00 | 72 | 1015.3 |
| 20260509113824 | 10 | 317 | 0.0 | 0.0 | 0.00 | 0.00 | 0.00 | 71 | 1015.1 |
| 20260509113320 | 9 | 274 | 0.0 | 0.0 | 0.00 | 0.00 | 0.00 | 72 | 1015.2 |
| 20260509112817 | 8 | 278 | 0.0 | 0.0 | 0.00 | 0.00 | 0.00 | 74 | 1015.3 |
| 20260509112314 | 8 | 271 | 0.0 | 0.0 | 0.00 | 0.00 | 0.00 | 77 | 1015.0 |
| 20260509111811 | 7 | 280 | 0.0 | 0.0 | 0.00 | 0.00 | 0.00 | 82 | 1015.3 |